Time,TemperatureF,DewpointF,PressureIn,WindDirection,WindDirectionDegrees,WindSpeedMPH,WindSpeedGustMPH,Humidity,HourlyPrecipIn,Conditions,Clouds,dailyrainin,SoftwareType,DateUTC
2013-07-29 00:00:00,56.1,54.1,29.90,SW,235,0.0,1.0,93,0.01,,---,0.00,VWS V14.01,2013-07-29 04:00:00,
2013-07-29 00:01:00,56.1,54.1,29.90,SW,235,0.0,1.0,93,0.01,,---,0.00,VWS V14.01,2013-07-29 04:01:00,
2013-07-29 00:05:00,56.0,54.3,29.90,SW,235,0.0,1.0,94,0.01,,---,0.00,VWS V14.01,2013-07-29 04:05:00,
2013-07-29 00:06:00,56.0,54.3,29.90,SW,235,0.0,0.0,94,0.01,,---,0.00,VWS V14.01,2013-07-29 04:06:00,
2013-07-29 00:10:00,56.0,54.3,29.90,SSW,198,0.0,0.0,94,0.01,,---,0.00,VWS V14.01,2013-07-29 04:10:00,
2013-07-29 00:11:00,56.0,54.3,29.90,SW,229,0.0,1.0,94,0.01,,---,0.00,VWS V14.01,2013-07-29 04:11:00,
2013-07-29 00:15:00,56.0,54.3,29.90,SW,229,0.0,2.0,94,0.01,,---,0.00,VWS V14.01,2013-07-29 04:15:00,
2013-07-29 00:16:00,56.0,54.6,29.90,SW,229,0.0,0.0,95,0.01,,---,0.00,VWS V14.01,2013-07-29 04:16:00,
2013-07-29 00:20:00,56.0,54.6,29.90,SW,229,0.0,1.0,95,0.01,,---,0.00,VWS V14.01,2013-07-29 04:20:00,
2013-07-29 00:21:00,56.0,54.6,29.90,SW,229,0.0,0.0,95,0.01,,---,0.00,VWS V14.01,2013-07-29 04:21:00,
2013-07-29 00:25:00,56.0,54.6,29.91,WSW,240,1.0,2.0,95,0.01,,---,0.00,VWS V14.01,2013-07-29 04:25:00,
2013-07-29 00:26:00,56.0,54.6,29.91,WSW,240,0.0,1.0,95,0.01,,---,0.00,VWS V14.01,2013-07-29 04:26:00,
2013-07-29 00:30:00,56.0,54.6,29.90,SW,229,1.0,1.0,95,0.01,,---,0.00,VWS V14.01,2013-07-29 04:30:00,
2013-07-29 00:31:00,56.0,54.6,29.91,WSW,245,0.0,2.0,95,0.01,,---,0.00,VWS V14.01,2013-07-29 04:31:00,
2013-07-29 00:35:00,56.1,54.7,29.91,West,266,1.0,3.0,95,0.01,,---,0.00,VWS V14.01,2013-07-29 04:35:00,
2013-07-29 00:36:00,56.1,54.7,29.91,WSW,243,1.0,3.0,95,0.01,,---,0.00,VWS V14.01,2013-07-29 04:36:00,
2013-07-29 00:40:00,56.2,54.5,29.91,SW,236,0.0,3.0,94,0.01,,---,0.00,VWS V14.01,2013-07-29 04:40:00,
2013-07-29 00:41:00,56.3,54.6,29.91,WSW,238,0.0,1.0,94,0.01,,---,0.00,VWS V14.01,2013-07-29 04:41:00,
2013-07-29 00:45:00,56.3,54.6,29.91,East,99,2.0,3.0,94,0.02,,---,0.01,VWS V14.01,2013-07-29 04:45:00,
2013-07-29 00:46:00,56.3,54.6,29.91,SW,228,1.0,2.0,94,0.02,,---,0.01,VWS V14.01,2013-07-29 04:46:00,
2013-07-29 00:50:00,56.3,54.6,29.92,SW,227,1.0,7.0,94,0.02,,---,0.01,VWS V14.01,2013-07-29 04:50:00,
2013-07-29 00:51:00,56.3,54.9,29.91,West,261,4.0,5.0,95,0.01,,---,0.01,VWS V14.01,2013-07-29 04:51:00,
2013-07-29 00:55:00,56.3,54.9,29.91,WSW,243,3.0,5.0,95,0.01,,---,0.01,VWS V14.01,2013-07-29 04:55:00,
2013-07-29 00:56:00,56.3,54.9,29.92,SW,215,0.0,3.0,95,0.01,,---,0.01,VWS V14.01,2013-07-29 04:56:00,
2013-07-29 01:00:00,56.3,54.9,29.91,West,262,3.0,6.0,95,0.01,,---,0.01,VWS V14.01,2013-07-29 05:00:00,
2013-07-29 01:01:00,56.2,54.8,29.91,SW,229,0.0,7.0,95,0.02,,---,0.02,VWS V14.01,2013-07-29 05:01:00,
2013-07-29 01:05:00,56.2,54.8,29.92,SW,226,2.0,7.0,95,0.02,,---,0.02,VWS V14.01,2013-07-29 05:05:00,
2013-07-29 01:07:00,56.2,54.8,29.92,SW,221,0.0,4.0,95,0.02,,---,0.02,VWS V14.01,2013-07-29 05:07:00,
2013-07-29 01:10:00,56.2,55.1,29.92,WSW,240,0.0,4.0,96,0.02,,---,0.02,VWS V14.01,2013-07-29 05:10:00,
2013-07-29 01:12:00,56.2,55.1,29.92,SW,218,0.0,3.0,96,0.02,,---,0.02,VWS V14.01,2013-07-29 05:12:00,
2013-07-29 01:15:00,56.2,55.1,29.92,SW,222,1.0,4.0,96,0.02,,---,0.02,VWS V14.01,2013-07-29 05:15:00,
2013-07-29 01:16:00,56.2,55.1,29.92,WSW,239,2.0,3.0,96,0.02,,---,0.02,VWS V14.01,2013-07-29 05:16:00,
2013-07-29 01:20:00,56.2,55.1,29.92,WSW,248,2.0,4.0,96,0.02,,---,0.02,VWS V14.01,2013-07-29 05:20:00,
2013-07-29 01:21:00,56.2,55.1,29.92,SSW,211,1.0,6.0,96,0.02,,---,0.02,VWS V14.01,2013-07-29 05:21:00,
2013-07-29 01:25:00,56.3,55.2,29.92,SW,226,2.0,6.0,96,0.02,,---,0.02,VWS V14.01,2013-07-29 05:25:00,
2013-07-29 01:27:00,56.3,55.2,29.92,SW,235,0.0,3.0,96,0.02,,---,0.02,VWS V14.01,2013-07-29 05:27:00,
2013-07-29 01:30:00,56.3,55.2,29.92,SW,217,3.0,4.0,96,0.02,,---,0.02,VWS V14.01,2013-07-29 05:30:00,
2013-07-29 01:32:00,56.3,55.2,29.92,SW,215,1.0,5.0,96,0.02,,---,0.02,VWS V14.01,2013-07-29 05:32:00,
2013-07-29 01:35:00,56.4,55.3,29.92,West,264,4.0,5.0,96,0.02,,---,0.02,VWS V14.01,2013-07-29 05:35:00,
2013-07-29 01:37:00,56.4,55.3,29.92,SSE,158,1.0,4.0,96,0.02,,---,0.02,VWS V14.01,2013-07-29 05:37:00,
2013-07-29 01:40:00,56.5,55.4,29.92,SSE,161,5.0,6.0,96,0.02,,---,0.02,VWS V14.01,2013-07-29 05:40:00,
2013-07-29 01:42:00,56.5,55.4,29.92,SW,231,3.0,5.0,96,0.02,,---,0.02,VWS V14.01,2013-07-29 05:42:00,
2013-07-29 01:45:00,56.5,55.4,29.92,SW,231,2.0,5.0,96,0.02,,---,0.02,VWS V14.01,2013-07-29 05:45:00,
2013-07-29 01:47:00,56.5,55.4,29.92,SW,230,1.0,3.0,96,0.01,,---,0.02,VWS V14.01,2013-07-29 05:47:00,
2013-07-29 01:50:00,56.5,55.7,29.92,SW,224,0.0,4.0,97,0.01,,---,0.02,VWS V14.01,2013-07-29 05:50:00,
2013-07-29 01:52:00,56.6,55.8,29.92,SW,227,1.0,2.0,97,0.01,,---,0.02,VWS V14.01,2013-07-29 05:52:00,
2013-07-29 01:55:00,56.6,55.8,29.91,West,259,0.0,3.0,97,0.01,,---,0.02,VWS V14.01,2013-07-29 05:55:00,
2013-07-29 01:57:00,56.6,55.8,29.91,SW,235,0.0,2.0,97,0.01,,---,0.02,VWS V14.01,2013-07-29 05:57:00,
2013-07-29 02:00:00,56.6,55.8,29.91,SW,225,1.0,3.0,97,0.01,,---,0.02,VWS V14.01,2013-07-29 06:00:00,
2013-07-29 02:02:00,56.6,55.8,29.92,SW,221,1.0,2.0,97,0.01,,---,0.02,VWS V14.01,2013-07-29 06:02:00,
2013-07-29 02:05:00,56.6,55.8,29.92,SW,229,0.0,2.0,97,0.01,,---,0.02,VWS V14.01,2013-07-29 06:05:00,
2013-07-29 02:07:00,56.6,55.8,29.92,SW,218,0.0,2.0,97,0.00,,---,0.02,VWS V14.01,2013-07-29 06:07:00,
2013-07-29 02:10:00,56.6,55.8,29.92,SW,231,1.0,3.0,97,0.00,,---,0.02,VWS V14.01,2013-07-29 06:10:00,
2013-07-29 02:12:00,56.6,55.8,29.92,WSW,257,1.0,2.0,97,0.00,,---,0.02,VWS V14.01,2013-07-29 06:12:00,
2013-07-29 02:15:00,56.6,55.8,29.92,WNW,284,0.0,4.0,97,0.00,,---,0.02,VWS V14.01,2013-07-29 06:15:00,
2013-07-29 02:17:00,56.6,55.8,29.92,WSW,247,1.0,1.0,97,0.00,,---,0.02,VWS V14.01,2013-07-29 06:17:00,
2013-07-29 02:20:00,56.5,55.7,29.92,WSW,253,1.0,2.0,97,0.00,,---,0.02,VWS V14.01,2013-07-29 06:20:00,
2013-07-29 02:22:00,56.5,55.4,29.92,SSW,206,4.0,4.0,96,0.00,,---,0.02,VWS V14.01,2013-07-29 06:22:00,
2013-07-29 02:25:00,56.5,55.4,29.92,SW,225,2.0,4.0,96,0.00,,---,0.02,VWS V14.01,2013-07-29 06:25:00,
2013-07-29 02:27:00,56.5,55.4,29.92,SW,219,2.0,4.0,96,0.00,,---,0.02,VWS V14.01,2013-07-29 06:27:00,
2013-07-29 02:30:00,56.5,55.4,29.92,SW,229,2.0,4.0,96,0.00,,---,0.02,VWS V14.01,2013-07-29 06:30:00,
2013-07-29 02:32:00,56.5,55.4,29.92,WSW,245,1.0,3.0,96,0.00,,---,0.02,VWS V14.01,2013-07-29 06:32:00,
2013-07-29 02:35:00,56.6,55.5,29.92,SW,219,1.0,3.0,96,0.00,,---,0.02,VWS V14.01,2013-07-29 06:35:00,
2013-07-29 02:37:00,56.6,55.5,29.92,SW,224,3.0,3.0,96,0.00,,---,0.02,VWS V14.01,2013-07-29 06:37:00,
2013-07-29 02:40:00,56.6,55.5,29.92,WSW,248,1.0,3.0,96,0.00,,---,0.02,VWS V14.01,2013-07-29 06:40:00,
2013-07-29 02:42:00,56.6,55.5,29.92,SW,236,0.0,2.0,96,0.00,,---,0.02,VWS V14.01,2013-07-29 06:42:00,
2013-07-29 02:45:00,56.6,55.5,29.92,WNW,290,0.0,3.0,96,0.00,,---,0.02,VWS V14.01,2013-07-29 06:45:00,
2013-07-29 02:47:00,56.6,55.5,29.92,SSE,163,0.0,2.0,96,0.00,,---,0.02,VWS V14.01,2013-07-29 06:47:00,
2013-07-29 02:50:00,56.6,55.5,29.92,SW,225,3.0,4.0,96,0.00,,---,0.02,VWS V14.01,2013-07-29 06:50:00,
2013-07-29 02:52:00,56.6,55.5,29.92,NW,309,1.0,5.0,96,0.00,,---,0.02,VWS V14.01,2013-07-29 06:52:00,
2013-07-29 02:55:00,56.6,55.5,29.92,WSW,238,1.0,5.0,96,0.00,,---,0.02,VWS V14.01,2013-07-29 06:55:00,
2013-07-29 02:57:00,56.6,55.5,29.92,SW,222,2.0,2.0,96,0.00,,---,0.02,VWS V14.01,2013-07-29 06:57:00,
2013-07-29 03:00:00,56.6,55.5,29.92,WSW,246,0.0,2.0,96,0.00,,---,0.02,VWS V14.01,2013-07-29 07:00:00,
2013-07-29 03:02:00,56.6,55.5,29.92,West,260,2.0,2.0,96,0.00,,---,0.02,VWS V14.01,2013-07-29 07:02:00,
2013-07-29 03:05:00,56.6,55.5,29.93,SW,224,1.0,3.0,96,0.00,,---,0.02,VWS V14.01,2013-07-29 07:05:00,
2013-07-29 03:07:00,56.6,55.5,29.92,West,259,2.0,4.0,96,0.00,,---,0.02,VWS V14.01,2013-07-29 07:07:00,
2013-07-29 03:10:00,56.6,55.5,29.92,SW,225,1.0,4.0,96,0.00,,---,0.02,VWS V14.01,2013-07-29 07:10:00,
2013-07-29 03:12:00,56.6,55.5,29.93,WSW,239,2.0,2.0,96,0.00,,---,0.02,VWS V14.01,2013-07-29 07:12:00,
2013-07-29 03:15:00,56.6,55.5,29.92,SSE,153,1.0,3.0,96,0.00,,---,0.02,VWS V14.01,2013-07-29 07:15:00,
2013-07-29 03:17:00,56.6,55.5,29.92,SW,231,3.0,6.0,96,0.00,,---,0.02,VWS V14.01,2013-07-29 07:17:00,
2013-07-29 03:20:00,56.6,55.5,29.92,WSW,246,3.0,6.0,96,0.00,,---,0.02,VWS V14.01,2013-07-29 07:20:00,
2013-07-29 03:22:00,56.5,55.4,29.93,WSW,252,2.0,3.0,96,0.00,,---,0.02,VWS V14.01,2013-07-29 07:22:00,
2013-07-29 03:25:00,56.6,55.5,29.93,SW,225,2.0,3.0,96,0.00,,---,0.02,VWS V14.01,2013-07-29 07:25:00,
2013-07-29 03:27:00,56.5,55.4,29.93,SW,220,1.0,5.0,96,0.00,,---,0.02,VWS V14.01,2013-07-29 07:27:00,
2013-07-29 03:30:00,56.6,55.5,29.93,West,266,1.0,5.0,96,0.00,,---,0.02,VWS V14.01,2013-07-29 07:30:00,
2013-07-29 03:32:00,56.6,55.5,29.93,SW,235,5.0,5.0,96,0.00,,---,0.02,VWS V14.01,2013-07-29 07:32:00,
2013-07-29 03:35:00,56.5,55.4,29.93,SSE,156,1.0,5.0,96,0.00,,---,0.02,VWS V14.01,2013-07-29 07:35:00,
2013-07-29 03:37:00,56.5,55.4,29.93,SW,218,3.0,3.0,96,0.00,,---,0.02,VWS V14.01,2013-07-29 07:37:00,
2013-07-29 03:40:00,56.6,55.5,29.93,SW,231,1.0,3.0,96,0.00,,---,0.02,VWS V14.01,2013-07-29 07:40:00,
2013-07-29 03:42:00,56.6,55.5,29.93,SW,231,0.0,1.0,96,0.00,,---,0.02,VWS V14.01,2013-07-29 07:42:00,
2013-07-29 03:45:00,56.5,55.4,29.93,SW,229,0.0,2.0,96,0.00,,---,0.02,VWS V14.01,2013-07-29 07:45:00,
2013-07-29 03:47:00,56.5,55.4,29.93,SW,226,2.0,2.0,96,0.00,,---,0.02,VWS V14.01,2013-07-29 07:47:00,
2013-07-29 03:50:00,56.5,55.4,29.94,SW,225,0.0,3.0,96,0.00,,---,0.02,VWS V14.01,2013-07-29 07:50:00,
2013-07-29 03:52:00,56.5,55.4,29.93,SW,224,2.0,3.0,96,0.00,,---,0.02,VWS V14.01,2013-07-29 07:52:00,
2013-07-29 03:55:00,56.4,55.3,29.94,WSW,249,1.0,3.0,96,0.00,,---,0.02,VWS V14.01,2013-07-29 07:55:00,
2013-07-29 03:57:00,56.4,55.3,29.94,WSW,248,1.0,4.0,96,0.00,,---,0.02,VWS V14.01,2013-07-29 07:57:00,
2013-07-29 04:00:00,56.4,55.3,29.94,WSW,242,2.0,4.0,96,0.00,,---,0.02,VWS V14.01,2013-07-29 08:00:00,
2013-07-29 04:02:00,56.4,55.3,29.94,WSW,240,0.0,2.0,96,0.00,,---,0.02,VWS V14.01,2013-07-29 08:02:00,
2013-07-29 04:05:00,56.4,55.3,29.94,SW,219,0.0,2.0,96,0.00,,---,0.02,VWS V14.01,2013-07-29 08:05:00,
2013-07-29 04:07:00,56.4,55.3,29.94,WSW,249,0.0,2.0,96,0.00,,---,0.02,VWS V14.01,2013-07-29 08:07:00,
2013-07-29 04:10:00,56.3,55.2,29.94,WSW,255,0.0,2.0,96,0.00,,---,0.02,VWS V14.01,2013-07-29 08:10:00,
2013-07-29 04:12:00,56.3,55.2,29.94,NW,308,1.0,1.0,96,0.00,,---,0.02,VWS V14.01,2013-07-29 08:12:00,
2013-07-29 04:15:00,56.3,55.2,29.94,SW,217,0.0,4.0,96,0.00,,---,0.02,VWS V14.01,2013-07-29 08:15:00,
2013-07-29 04:17:00,56.3,55.2,29.94,SW,219,0.0,2.0,96,0.00,,---,0.02,VWS V14.01,2013-07-29 08:17:00,
2013-07-29 04:20:00,56.3,55.2,29.94,SW,214,0.0,2.0,96,0.00,,---,0.02,VWS V14.01,2013-07-29 08:20:00,
2013-07-29 04:22:00,56.3,55.2,29.94,WNW,296,2.0,2.0,96,0.00,,---,0.02,VWS V14.01,2013-07-29 08:22:00,
2013-07-29 04:25:00,56.3,55.2,29.94,WSW,243,0.0,3.0,96,0.00,,---,0.02,VWS V14.01,2013-07-29 08:25:00,
2013-07-29 04:27:00,56.3,55.2,29.94,WSW,243,0.0,0.0,96,0.00,,---,0.02,VWS V14.01,2013-07-29 08:27:00,
2013-07-29 04:30:00,56.3,55.2,29.94,SW,236,0.0,1.0,96,0.00,,---,0.02,VWS V14.01,2013-07-29 08:30:00,
2013-07-29 04:32:00,56.3,55.2,29.94,SW,225,1.0,1.0,96,0.00,,---,0.02,VWS V14.01,2013-07-29 08:32:00,
2013-07-29 04:35:00,56.3,55.2,29.94,SW,225,0.0,1.0,96,0.00,,---,0.02,VWS V14.01,2013-07-29 08:35:00,
2013-07-29 04:37:00,56.3,55.2,29.94,SW,225,0.0,0.0,96,0.00,,---,0.02,VWS V14.01,2013-07-29 08:37:00,
2013-07-29 04:40:00,56.3,55.2,29.94,SW,225,0.0,1.0,96,0.00,,---,0.02,VWS V14.01,2013-07-29 08:40:00,
2013-07-29 04:42:00,56.3,55.2,29.94,SW,226,0.0,1.0,96,0.00,,---,0.02,VWS V14.01,2013-07-29 08:42:00,
2013-07-29 04:45:00,56.3,55.2,29.94,SW,226,2.0,3.0,96,0.00,,---,0.02,VWS V14.01,2013-07-29 08:45:00,
2013-07-29 04:47:00,56.3,55.2,29.94,SW,230,1.0,3.0,96,0.00,,---,0.02,VWS V14.01,2013-07-29 08:47:00,
2013-07-29 04:50:00,56.3,55.2,29.95,SW,228,1.0,3.0,96,0.00,,---,0.02,VWS V14.01,2013-07-29 08:50:00,
2013-07-29 04:52:00,56.3,55.2,29.95,WNW,285,3.0,3.0,96,0.00,,---,0.02,VWS V14.01,2013-07-29 08:52:00,
2013-07-29 04:55:00,56.2,55.1,29.95,SW,224,1.0,3.0,96,0.00,,---,0.02,VWS V14.01,2013-07-29 08:55:00,
2013-07-29 04:57:00,56.2,55.1,29.95,SW,225,2.0,2.0,96,0.00,,---,0.02,VWS V14.01,2013-07-29 08:57:00,
2013-07-29 05:00:00,56.2,55.1,29.95,SW,221,0.0,2.0,96,0.00,,---,0.02,VWS V14.01,2013-07-29 09:00:00,
2013-07-29 05:02:00,56.2,55.1,29.95,SW,221,0.0,1.0,96,0.00,,---,0.02,VWS V14.01,2013-07-29 09:02:00,
2013-07-29 05:05:00,56.2,55.1,29.95,WSW,248,0.0,1.0,96,0.00,,---,0.02,VWS V14.01,2013-07-29 09:05:00,
2013-07-29 05:07:00,56.2,55.1,29.95,West,263,0.0,1.0,96,0.00,,---,0.02,VWS V14.01,2013-07-29 09:07:00,
2013-07-29 05:10:00,56.2,55.1,29.95,SW,224,0.0,1.0,96,0.00,,---,0.02,VWS V14.01,2013-07-29 09:10:00,
2013-07-29 05:12:00,56.2,55.1,29.95,SW,224,0.0,1.0,96,0.00,,---,0.02,VWS V14.01,2013-07-29 09:12:00,
2013-07-29 05:15:00,56.1,55.0,29.95,WSW,238,0.0,1.0,96,0.00,,---,0.02,VWS V14.01,2013-07-29 09:15:00,
2013-07-29 05:17:00,56.2,55.1,29.95,WSW,238,0.0,0.0,96,0.00,,---,0.02,VWS V14.01,2013-07-29 09:17:00,
2013-07-29 05:20:00,56.1,55.0,29.95,WSW,238,1.0,1.0,96,0.00,,---,0.02,VWS V14.01,2013-07-29 09:20:00,
2013-07-29 05:22:00,56.1,55.0,29.95,SW,231,1.0,1.0,96,0.00,,---,0.02,VWS V14.01,2013-07-29 09:22:00,
2013-07-29 05:25:00,56.1,55.0,29.95,SSW,212,0.0,1.0,96,0.00,,---,0.02,VWS V14.01,2013-07-29 09:25:00,
2013-07-29 05:27:00,56.0,54.9,29.95,SW,233,0.0,1.0,96,0.00,,---,0.02,VWS V14.01,2013-07-29 09:27:00,
2013-07-29 05:30:00,56.1,55.0,29.95,SW,229,0.0,1.0,96,0.00,,---,0.02,VWS V14.01,2013-07-29 09:30:00,
2013-07-29 05:32:00,56.1,55.0,29.95,SW,223,1.0,2.0,96,0.00,,---,0.02,VWS V14.01,2013-07-29 09:32:00,
2013-07-29 05:35:00,56.1,55.0,29.95,SW,219,0.0,2.0,96,0.00,,---,0.02,VWS V14.01,2013-07-29 09:35:00,
2013-07-29 05:37:00,56.1,55.0,29.95,SW,221,0.0,1.0,96,0.00,,---,0.02,VWS V14.01,2013-07-29 09:37:00,
2013-07-29 05:40:00,56.2,55.4,29.95,SW,219,0.0,1.0,97,0.00,,---,0.02,VWS V14.01,2013-07-29 09:40:00,
2013-07-29 05:42:00,56.2,55.4,29.95,WSW,239,0.0,1.0,97,0.00,,---,0.02,VWS V14.01,2013-07-29 09:42:00,
2013-07-29 05:45:00,56.2,55.4,29.95,WSW,239,0.0,1.0,97,0.00,,---,0.02,VWS V14.01,2013-07-29 09:45:00,
2013-07-29 05:47:00,56.2,55.4,29.95,WSW,238,0.0,0.0,97,0.00,,---,0.02,VWS V14.01,2013-07-29 09:47:00,
2013-07-29 05:50:00,56.2,55.4,29.96,SW,229,1.0,3.0,97,0.00,,---,0.02,VWS V14.01,2013-07-29 09:50:00,
2013-07-29 05:52:00,56.2,55.4,29.96,WSW,240,1.0,2.0,97,0.00,,---,0.02,VWS V14.01,2013-07-29 09:52:00,
2013-07-29 05:55:00,56.2,55.4,29.96,WSW,241,0.0,3.0,97,0.00,,---,0.02,VWS V14.01,2013-07-29 09:55:00,
2013-07-29 05:57:00,56.2,55.4,29.96,SSW,205,0.0,2.0,97,0.00,,---,0.02,VWS V14.01,2013-07-29 09:57:00,
2013-07-29 06:00:00,56.2,55.4,29.96,SSW,207,2.0,3.0,97,0.00,,---,0.02,VWS V14.01,2013-07-29 10:00:00,
2013-07-29 06:02:00,56.2,55.4,29.96,SW,215,0.0,2.0,97,0.00,,---,0.02,VWS V14.01,2013-07-29 10:02:00,
2013-07-29 06:05:00,56.1,55.3,29.96,SW,225,0.0,2.0,97,0.00,,---,0.02,VWS V14.01,2013-07-29 10:05:00,
2013-07-29 06:07:00,56.1,55.3,29.96,SW,225,0.0,1.0,97,0.00,,---,0.02,VWS V14.01,2013-07-29 10:07:00,
2013-07-29 06:10:00,56.1,55.3,29.96,SW,218,1.0,3.0,97,0.00,,---,0.02,VWS V14.01,2013-07-29 10:10:00,
2013-07-29 06:12:00,56.1,55.3,29.96,SW,229,0.0,1.0,97,0.00,,---,0.02,VWS V14.01,2013-07-29 10:12:00,
2013-07-29 06:15:00,56.0,55.2,29.96,SW,226,0.0,2.0,97,0.00,,---,0.02,VWS V14.01,2013-07-29 10:15:00,
2013-07-29 06:18:00,55.9,55.1,29.96,SW,229,0.0,3.0,97,0.00,,---,0.02,VWS V14.01,2013-07-29 10:18:00,
2013-07-29 06:20:00,55.9,55.1,29.96,SW,229,1.0,4.0,97,0.00,,---,0.02,VWS V14.01,2013-07-29 10:20:00,
2013-07-29 06:23:00,55.8,55.0,29.97,South,170,0.0,2.0,97,0.00,,---,0.02,VWS V14.01,2013-07-29 10:23:00,
2013-07-29 06:25:00,55.8,55.0,29.97,WSW,246,0.0,2.0,97,0.00,,---,0.02,VWS V14.01,2013-07-29 10:25:00,
2013-07-29 06:28:00,55.7,54.9,29.97,WSW,256,0.0,2.0,97,0.00,,---,0.02,VWS V14.01,2013-07-29 10:28:00,
2013-07-29 06:30:00,55.7,54.9,29.97,SW,232,1.0,3.0,97,0.00,,---,0.02,VWS V14.01,2013-07-29 10:30:00,
2013-07-29 06:33:00,55.7,54.9,29.97,SSW,196,3.0,3.0,97,0.00,,---,0.02,VWS V14.01,2013-07-29 10:33:00,
2013-07-29 06:35:00,55.6,54.8,29.97,SW,224,0.0,3.0,97,0.00,,---,0.02,VWS V14.01,2013-07-29 10:35:00,
2013-07-29 06:39:00,55.6,54.8,29.97,SSE,163,0.0,2.0,97,0.00,,---,0.02,VWS V14.01,2013-07-29 10:39:00,
2013-07-29 06:40:00,55.6,54.8,29.98,SW,231,0.0,3.0,97,0.00,,---,0.02,VWS V14.01,2013-07-29 10:40:00,
2013-07-29 06:43:00,55.6,54.8,29.98,WSW,242,0.0,2.0,97,0.00,,---,0.02,VWS V14.01,2013-07-29 10:43:00,
2013-07-29 06:45:00,55.6,54.8,29.98,WSW,241,0.0,2.0,97,0.00,,---,0.02,VWS V14.01,2013-07-29 10:45:00,
2013-07-29 06:48:00,55.6,54.8,29.98,SW,222,0.0,2.0,97,0.00,,---,0.02,VWS V14.01,2013-07-29 10:48:00,
2013-07-29 06:50:00,55.7,54.9,29.98,WSW,252,0.0,2.0,97,0.00,,---,0.02,VWS V14.01,2013-07-29 10:50:00,
2013-07-29 06:54:00,55.7,54.9,29.98,SSW,210,3.0,3.0,97,0.00,,---,0.02,VWS V14.01,2013-07-29 10:54:00,
2013-07-29 06:55:00,55.7,54.9,29.98,SSW,204,0.0,3.0,97,0.00,,---,0.02,VWS V14.01,2013-07-29 10:55:00,
2013-07-29 06:59:00,55.8,55.0,29.98,SW,221,0.0,2.0,97,0.00,,---,0.02,VWS V14.01,2013-07-29 10:59:00,
2013-07-29 07:00:00,55.8,55.0,29.98,SW,221,1.0,3.0,97,0.00,,---,0.02,VWS V14.01,2013-07-29 11:00:00,
2013-07-29 07:04:00,55.9,55.1,29.98,SW,228,1.0,2.0,97,0.00,,---,0.02,VWS V14.01,2013-07-29 11:04:00,
2013-07-29 07:05:00,55.9,55.1,29.98,WNW,285,2.0,3.0,97,0.00,,---,0.02,VWS V14.01,2013-07-29 11:05:00,
2013-07-29 07:09:00,55.9,54.8,29.99,SW,228,0.0,3.0,96,0.00,,---,0.02,VWS V14.01,2013-07-29 11:09:00,
2013-07-29 07:10:00,56.0,54.9,29.99,SW,214,1.0,3.0,96,0.00,,---,0.02,VWS V14.01,2013-07-29 11:10:00,
2013-07-29 07:14:00,56.0,54.9,29.99,SW,226,2.0,2.0,96,0.00,,---,0.02,VWS V14.01,2013-07-29 11:14:00,
2013-07-29 07:15:00,56.1,55.0,29.99,SW,233,1.0,2.0,96,0.00,,---,0.02,VWS V14.01,2013-07-29 11:15:00,
2013-07-29 07:19:00,56.1,55.0,29.99,SSW,200,2.0,3.0,96,0.00,,---,0.02,VWS V14.01,2013-07-29 11:19:00,
2013-07-29 07:20:00,56.1,55.0,29.99,West,269,1.0,3.0,96,0.00,,---,0.02,VWS V14.01,2013-07-29 11:20:00,
2013-07-29 07:24:00,56.1,55.0,29.99,SSW,210,1.0,2.0,96,0.00,,---,0.02,VWS V14.01,2013-07-29 11:24:00,
2013-07-29 07:25:00,56.1,55.0,29.99,SSW,210,0.0,2.0,96,0.00,,---,0.02,VWS V14.01,2013-07-29 11:25:00,
2013-07-29 07:29:00,56.2,55.1,29.99,SW,214,0.0,2.0,96,0.00,,---,0.02,VWS V14.01,2013-07-29 11:29:00,
2013-07-29 07:30:00,56.2,55.1,29.99,SW,214,0.0,2.0,96,0.00,,---,0.02,VWS V14.01,2013-07-29 11:30:00,
2013-07-29 07:35:00,56.3,55.2,30.00,WSW,240,2.0,4.0,96,0.00,,---,0.02,VWS V14.01,2013-07-29 11:35:00,
2013-07-29 07:40:00,56.3,55.2,30.00,NW,307,2.0,2.0,96,0.00,,---,0.02,VWS V14.01,2013-07-29 11:40:00,
2013-07-29 07:45:00,56.4,55.3,30.00,WSW,245,0.0,4.0,96,0.00,,---,0.02,VWS V14.01,2013-07-29 11:45:00,
2013-07-29 07:50:00,56.5,55.1,30.00,SW,218,1.0,4.0,95,0.00,,---,0.02,VWS V14.01,2013-07-29 11:50:00,
2013-07-29 07:55:00,56.6,55.2,30.00,West,276,0.0,2.0,95,0.00,,---,0.02,VWS V14.01,2013-07-29 11:55:00,
2013-07-29 08:00:00,56.7,55.3,30.00,West,281,0.0,2.0,95,0.00,,---,0.02,VWS V14.01,2013-07-29 12:00:00,
2013-07-29 08:05:00,57.0,55.6,30.00,North,354,0.0,2.0,95,0.00,,---,0.02,VWS V14.01,2013-07-29 12:05:00,
2013-07-29 08:10:00,57.5,55.8,30.00,SW,229,2.0,3.0,94,0.00,,---,0.02,VWS V14.01,2013-07-29 12:10:00,
2013-07-29 08:15:00,57.9,55.9,30.00,West,267,1.0,7.0,93,0.00,,---,0.02,VWS V14.01,2013-07-29 12:15:00,
2013-07-29 08:20:00,58.1,55.8,30.00,SSW,195,1.0,5.0,92,0.00,,---,0.02,VWS V14.01,2013-07-29 12:20:00,
2013-07-29 08:25:00,58.3,56.0,30.00,SSW,203,0.0,0.0,92,0.00,,---,0.02,VWS V14.01,2013-07-29 12:25:00,
2013-07-29 08:30:00,58.6,55.7,30.00,SW,231,1.0,1.0,90,0.00,,---,0.02,VWS V14.01,2013-07-29 12:30:00,
2013-07-29 08:35:00,58.9,55.7,30.01,NNW,340,3.0,4.0,89,0.00,,---,0.02,VWS V14.01,2013-07-29 12:35:00,
2013-07-29 08:36:00,58.9,55.7,30.00,NW,305,2.0,3.0,89,0.00,,---,0.02,VWS V14.01,2013-07-29 12:36:00,
2013-07-29 08:40:00,59.1,55.9,30.00,NW,312,2.0,5.0,89,0.00,,---,0.02,VWS V14.01,2013-07-29 12:40:00,
2013-07-29 08:41:00,59.2,56.0,30.01,SSW,208,1.0,3.0,89,0.00,,---,0.02,VWS V14.01,2013-07-29 12:41:00,
2013-07-29 08:45:00,59.2,55.7,30.01,SW,231,1.0,5.0,88,0.00,,---,0.02,VWS V14.01,2013-07-29 12:45:00,
2013-07-29 08:46:00,59.1,55.5,30.01,SW,233,5.0,5.0,88,0.00,,---,0.02,VWS V14.01,2013-07-29 12:46:00,
2013-07-29 08:50:00,58.8,55.3,30.01,NE,46,2.0,6.0,88,0.00,,---,0.02,VWS V14.01,2013-07-29 12:50:00,
2013-07-29 08:51:00,58.8,55.3,30.01,NNW,337,0.0,2.0,88,0.00,,---,0.02,VWS V14.01,2013-07-29 12:51:00,
2013-07-29 08:55:00,58.7,55.5,30.01,North,352,1.0,2.0,89,0.00,,---,0.02,VWS V14.01,2013-07-29 12:55:00,
2013-07-29 08:56:00,58.7,55.5,30.01,ENE,74,0.0,2.0,89,0.00,,---,0.02,VWS V14.01,2013-07-29 12:56:00,
2013-07-29 09:00:00,58.9,55.4,30.01,West,259,4.0,5.0,88,0.00,,---,0.02,VWS V14.01,2013-07-29 13:00:00,
2013-07-29 09:01:00,59.0,55.5,30.02,SSE,159,3.0,4.0,88,0.00,,---,0.02,VWS V14.01,2013-07-29 13:01:00,
2013-07-29 09:05:00,59.2,55.3,30.02,SW,236,1.0,7.0,87,0.00,,---,0.02,VWS V14.01,2013-07-29 13:05:00,
2013-07-29 09:07:00,59.2,55.7,30.02,SSW,210,2.0,5.0,88,0.00,,---,0.02,VWS V14.01,2013-07-29 13:07:00,
2013-07-29 09:10:00,59.1,55.6,30.02,West,276,1.0,5.0,88,0.00,,---,0.02,VWS V14.01,2013-07-29 13:10:00,
2013-07-29 09:12:00,59.0,55.5,30.02,SSW,197,4.0,4.0,88,0.00,,---,0.02,VWS V14.01,2013-07-29 13:12:00,
2013-07-29 09:15:00,58.9,55.4,30.02,WSW,239,2.0,4.0,88,0.00,,---,0.02,VWS V14.01,2013-07-29 13:15:00,
2013-07-29 09:17:00,58.8,55.0,30.02,WSW,249,1.0,5.0,87,0.00,,---,0.02,VWS V14.01,2013-07-29 13:17:00,
2013-07-29 09:20:00,58.8,55.3,30.02,NW,311,1.0,5.0,88,0.00,,---,0.02,VWS V14.01,2013-07-29 13:20:00,
2013-07-29 09:22:00,58.8,55.3,30.02,SW,228,2.0,5.0,88,0.00,,---,0.02,VWS V14.01,2013-07-29 13:22:00,
2013-07-29 09:25:00,58.7,54.8,30.02,NNW,346,4.0,8.0,87,0.00,,---,0.02,VWS V14.01,2013-07-29 13:25:00,
2013-07-29 09:28:00,58.6,55.1,30.03,SW,217,3.0,4.0,88,0.00,,---,0.02,VWS V14.01,2013-07-29 13:28:00,
2013-07-29 09:30:00,58.7,55.2,30.02,WSW,257,3.0,4.0,88,0.00,,---,0.02,VWS V14.01,2013-07-29 13:30:00,
2013-07-29 09:33:00,58.7,55.2,30.03,WNW,293,3.0,7.0,88,0.00,,---,0.02,VWS V14.01,2013-07-29 13:33:00,
2013-07-29 09:35:00,58.8,55.3,30.03,NNW,347,0.0,7.0,88,0.00,,---,0.02,VWS V14.01,2013-07-29 13:35:00,
2013-07-29 09:38:00,59.0,55.5,30.03,South,170,1.0,3.0,88,0.00,,---,0.02,VWS V14.01,2013-07-29 13:38:00,
2013-07-29 09:40:00,59.3,55.4,30.03,WSW,255,3.0,4.0,87,0.00,,---,0.02,VWS V14.01,2013-07-29 13:40:00,
2013-07-29 09:43:00,59.6,55.7,30.03,West,264,0.0,4.0,87,0.00,,---,0.02,VWS V14.01,2013-07-29 13:43:00,
2013-07-29 09:45:00,59.6,55.4,30.03,WSW,240,2.0,5.0,86,0.00,,---,0.02,VWS V14.01,2013-07-29 13:45:00,
2013-07-29 09:48:00,59.5,55.3,30.03,SW,233,3.0,3.0,86,0.00,,---,0.02,VWS V14.01,2013-07-29 13:48:00,
2013-07-29 09:50:00,59.3,55.1,30.03,SW,228,2.0,4.0,86,0.00,,---,0.02,VWS V14.01,2013-07-29 13:50:00,
2013-07-29 09:53:00,59.2,55.3,30.03,SW,229,1.0,4.0,87,0.00,,---,0.02,VWS V14.01,2013-07-29 13:53:00,
2013-07-29 09:55:00,59.4,55.5,30.03,WNW,286,2.0,4.0,87,0.00,,---,0.02,VWS V14.01,2013-07-29 13:55:00,
2013-07-29 09:58:00,59.9,56.0,30.03,SW,232,4.0,4.0,87,0.00,,---,0.02,VWS V14.01,2013-07-29 13:58:00,
2013-07-29 10:00:00,60.2,55.7,30.03,NW,321,2.0,5.0,85,0.00,,---,0.02,VWS V14.01,2013-07-29 14:00:00,
2013-07-29 10:03:00,60.3,55.5,30.04,NNE,26,1.0,7.0,84,0.00,,---,0.02,VWS V14.01,2013-07-29 14:03:00,
2013-07-29 10:05:00,60.5,55.7,30.04,NW,321,4.0,7.0,84,0.00,,---,0.02,VWS V14.01,2013-07-29 14:05:00,
2013-07-29 10:08:00,60.5,55.7,30.03,WNW,291,3.0,7.0,84,0.00,,---,0.02,VWS V14.01,2013-07-29 14:08:00,
2013-07-29 10:10:00,60.6,55.8,30.04,WNW,282,1.0,7.0,84,0.00,,---,0.02,VWS V14.01,2013-07-29 14:10:00,
2013-07-29 10:13:00,60.7,55.8,30.04,West,281,0.0,2.0,84,0.00,,---,0.02,VWS V14.01,2013-07-29 14:13:00,
2013-07-29 10:15:00,60.9,56.4,30.04,SW,221,3.0,5.0,85,0.00,,---,0.02,VWS V14.01,2013-07-29 14:15:00,
2013-07-29 10:18:00,60.9,55.7,30.04,NW,323,2.0,7.0,83,0.00,,---,0.02,VWS V14.01,2013-07-29 14:18:00,
2013-07-29 10:20:00,60.9,55.4,30.04,WNW,301,1.0,7.0,82,0.00,,---,0.02,VWS V14.01,2013-07-29 14:20:00,
2013-07-29 10:23:00,60.7,55.5,30.04,WSW,256,1.0,2.0,83,0.00,,---,0.02,VWS V14.01,2013-07-29 14:23:00,
2013-07-29 10:25:00,60.7,55.8,30.04,SW,231,0.0,2.0,84,0.00,,---,0.02,VWS V14.01,2013-07-29 14:25:00,
2013-07-29 10:28:00,60.7,55.5,30.04,WSW,238,1.0,3.0,83,0.00,,---,0.02,VWS V14.01,2013-07-29 14:28:00,
2013-07-29 10:30:00,60.6,55.8,30.04,NW,321,2.0,4.0,84,0.00,,---,0.02,VWS V14.01,2013-07-29 14:30:00,
2013-07-29 10:33:00,60.5,55.7,30.04,NW,317,0.0,5.0,84,0.00,,---,0.02,VWS V14.01,2013-07-29 14:33:00,
2013-07-29 10:35:00,60.5,55.7,30.04,SW,214,0.0,5.0,84,0.00,,---,0.02,VWS V14.01,2013-07-29 14:35:00,
2013-07-29 10:39:00,60.4,55.5,30.04,NNE,29,1.0,4.0,84,0.00,,---,0.02,VWS V14.01,2013-07-29 14:39:00,
2013-07-29 10:40:00,60.4,55.5,30.05,NE,42,2.0,4.0,84,0.00,,---,0.02,VWS V14.01,2013-07-29 14:40:00,
2013-07-29 10:44:00,60.5,55.7,30.04,WNW,293,2.0,3.0,84,0.00,,---,0.02,VWS V14.01,2013-07-29 14:44:00,
2013-07-29 10:45:00,60.6,55.8,30.04,ENE,60,3.0,5.0,84,0.00,,---,0.02,VWS V14.01,2013-07-29 14:45:00,
2013-07-29 10:49:00,61.1,56.2,30.05,WNW,284,1.0,5.0,84,0.00,,---,0.02,VWS V14.01,2013-07-29 14:49:00,
2013-07-29 10:50:00,61.2,56.7,30.05,South,184,2.0,5.0,85,0.00,,---,0.02,VWS V14.01,2013-07-29 14:50:00,
2013-07-29 10:54:00,61.2,55.7,30.05,NNW,338,3.0,5.0,82,0.00,,---,0.02,VWS V14.01,2013-07-29 14:54:00,
2013-07-29 10:55:00,61.2,55.7,30.05,SW,221,2.0,5.0,82,0.00,,---,0.02,VWS V14.01,2013-07-29 14:55:00,
2013-07-29 10:59:00,60.9,55.7,30.05,WNW,294,2.0,4.0,83,0.00,,---,0.02,VWS V14.01,2013-07-29 14:59:00,
2013-07-29 11:00:00,60.9,55.7,30.05,West,269,1.0,4.0,83,0.00,,---,0.02,VWS V14.01,2013-07-29 15:00:00,
2013-07-29 11:04:00,60.8,55.6,30.05,SW,225,0.0,4.0,83,0.00,,---,0.02,VWS V14.01,2013-07-29 15:04:00,
2013-07-29 11:05:00,60.8,55.6,30.05,SW,225,0.0,4.0,83,0.00,,---,0.02,VWS V14.01,2013-07-29 15:05:00,
2013-07-29 11:10:00,61.1,56.2,30.05,NW,317,1.0,2.0,84,0.00,,---,0.02,VWS V14.01,2013-07-29 15:10:00,
2013-07-29 11:15:00,61.2,55.7,30.05,South,191,0.0,4.0,82,0.00,,---,0.02,VWS V14.01,2013-07-29 15:15:00,
2013-07-29 11:20:00,61.6,56.1,30.05,SW,229,0.0,1.0,82,0.00,,---,0.02,VWS V14.01,2013-07-29 15:20:00,
2013-07-29 11:25:00,61.8,55.9,30.05,NNW,346,2.0,6.0,81,0.00,,---,0.02,VWS V14.01,2013-07-29 15:25:00,
2013-07-29 11:30:00,61.6,56.1,30.05,NW,306,2.0,3.0,82,0.00,,---,0.02,VWS V14.01,2013-07-29 15:30:00,
2013-07-29 11:35:00,61.4,55.9,30.05,SW,218,1.0,2.0,82,0.00,,---,0.02,VWS V14.01,2013-07-29 15:35:00,
2013-07-29 11:40:00,61.4,55.9,30.06,SW,233,2.0,2.0,82,0.00,,---,0.02,VWS V14.01,2013-07-29 15:40:00,
2013-07-29 11:45:00,61.7,56.5,30.06,NNW,331,1.0,1.0,83,0.00,,---,0.02,VWS V14.01,2013-07-29 15:45:00,
2013-07-29 11:50:00,62.0,56.5,30.06,SSE,160,3.0,5.0,82,0.00,,---,0.02,VWS V14.01,2013-07-29 15:50:00,
2013-07-29 11:55:00,62.2,56.0,30.06,West,259,0.0,0.0,80,0.00,,---,0.02,VWS V14.01,2013-07-29 15:55:00,
2013-07-29 12:00:00,62.9,57.0,30.06,WSW,252,1.0,3.0,81,0.00,,---,0.02,VWS V14.01,2013-07-29 16:00:00,
2013-07-29 12:05:00,63.2,56.2,30.06,SSW,193,1.0,6.0,78,0.00,,---,0.02,VWS V14.01,2013-07-29 16:05:00,
2013-07-29 12:06:00,63.2,55.9,30.06,SW,217,0.0,1.0,77,0.00,,---,0.02,VWS V14.01,2013-07-29 16:06:00,
2013-07-29 12:10:00,63.3,56.3,30.06,West,278,5.0,5.0,78,0.00,,---,0.02,VWS V14.01,2013-07-29 16:10:00,
2013-07-29 12:11:00,63.3,56.3,30.06,WNW,302,3.0,6.0,78,0.00,,---,0.02,VWS V14.01,2013-07-29 16:11:00,
2013-07-29 12:15:00,63.1,56.5,30.06,North,8,4.0,6.0,79,0.00,,---,0.02,VWS V14.01,2013-07-29 16:15:00,
2013-07-29 12:16:00,63.1,56.5,30.06,North,11,2.0,4.0,79,0.00,,---,0.02,VWS V14.01,2013-07-29 16:16:00,
2013-07-29 12:20:00,63.0,56.7,30.07,NNW,333,4.0,6.0,80,0.00,,---,0.02,VWS V14.01,2013-07-29 16:20:00,
2013-07-29 12:21:00,62.9,56.3,30.07,WSW,243,1.0,4.0,79,0.00,,---,0.02,VWS V14.01,2013-07-29 16:21:00,
2013-07-29 12:25:00,62.4,55.8,30.07,WNW,301,1.0,6.0,79,0.00,,---,0.02,VWS V14.01,2013-07-29 16:25:00,
2013-07-29 12:26:00,62.4,55.8,30.07,West,271,3.0,3.0,79,0.00,,---,0.02,VWS V14.01,2013-07-29 16:26:00,
2013-07-29 12:30:00,62.3,56.1,30.07,WNW,290,1.0,4.0,80,0.00,,---,0.02,VWS V14.01,2013-07-29 16:30:00,
2013-07-29 12:31:00,62.3,56.1,30.07,SSW,195,1.0,1.0,80,0.00,,---,0.02,VWS V14.01,2013-07-29 16:31:00,
2013-07-29 12:35:00,62.6,56.3,30.07,SW,226,2.0,5.0,80,0.00,,---,0.02,VWS V14.01,2013-07-29 16:35:00,
2013-07-29 12:36:00,62.6,56.3,30.07,West,264,1.0,3.0,80,0.00,,---,0.02,VWS V14.01,2013-07-29 16:36:00,
2013-07-29 12:40:00,62.8,56.5,30.07,SSW,208,1.0,5.0,80,0.00,,---,0.02,VWS V14.01,2013-07-29 16:40:00,
2013-07-29 12:41:00,62.9,56.6,30.07,SSW,197,1.0,3.0,80,0.00,,---,0.02,VWS V14.01,2013-07-29 16:41:00,
2013-07-29 12:45:00,63.2,56.6,30.07,NNW,339,2.0,5.0,79,0.00,,---,0.02,VWS V14.01,2013-07-29 16:45:00,
2013-07-29 12:47:00,63.3,56.3,30.07,West,266,0.0,3.0,78,0.00,,---,0.02,VWS V14.01,2013-07-29 16:47:00,
2013-07-29 12:50:00,64.2,57.6,30.07,WSW,238,3.0,3.0,79,0.00,,---,0.02,VWS V14.01,2013-07-29 16:50:00,
2013-07-29 12:52:00,64.6,56.9,30.07,NW,321,2.0,7.0,76,0.00,,---,0.02,VWS V14.01,2013-07-29 16:52:00,
2013-07-29 12:55:00,65.2,57.8,30.07,SSW,203,1.0,7.0,77,0.00,,---,0.02,VWS V14.01,2013-07-29 16:55:00,
2013-07-29 12:57:00,65.5,57.4,30.07,SSW,210,1.0,4.0,75,0.00,,---,0.02,VWS V14.01,2013-07-29 16:57:00,
2013-07-29 13:00:00,65.2,56.7,30.07,SW,229,4.0,8.0,74,0.00,,---,0.02,VWS V14.01,2013-07-29 17:00:00,
2013-07-29 13:03:00,64.7,56.2,30.07,WSW,252,3.0,6.0,74,0.00,,---,0.02,VWS V14.01,2013-07-29 17:03:00,
2013-07-29 13:05:00,64.3,56.6,30.07,NW,321,2.0,6.0,76,0.00,,---,0.02,VWS V14.01,2013-07-29 17:05:00,
2013-07-29 13:08:00,64.2,56.8,30.07,NNE,13,1.0,5.0,77,0.00,,---,0.02,VWS V14.01,2013-07-29 17:08:00,
2013-07-29 13:10:00,64.6,57.2,30.07,WNW,284,1.0,7.0,77,0.00,,---,0.02,VWS V14.01,2013-07-29 17:10:00,
2013-07-29 13:13:00,64.9,57.2,30.07,SW,228,1.0,3.0,76,0.00,,---,0.02,VWS V14.01,2013-07-29 17:13:00,
2013-07-29 13:15:00,65.0,56.9,30.07,SW,214,3.0,5.0,75,0.00,,---,0.02,VWS V14.01,2013-07-29 17:15:00,
2013-07-29 13:18:00,65.2,57.1,30.07,WNW,285,1.0,5.0,75,0.00,,---,0.02,VWS V14.01,2013-07-29 17:18:00,
2013-07-29 13:20:00,65.3,56.8,30.07,WSW,245,2.0,6.0,74,0.00,,---,0.02,VWS V14.01,2013-07-29 17:20:00,
2013-07-29 13:23:00,65.2,56.3,30.07,SW,217,1.0,7.0,73,0.00,,---,0.02,VWS V14.01,2013-07-29 17:23:00,
2013-07-29 13:25:00,65.0,56.5,30.07,SW,232,0.0,7.0,74,0.00,,---,0.02,VWS V14.01,2013-07-29 17:25:00,
2013-07-29 13:28:00,65.2,57.1,30.07,NW,315,2.0,3.0,75,0.00,,---,0.02,VWS V14.01,2013-07-29 17:28:00,
2013-07-29 13:30:00,65.3,56.8,30.07,WSW,252,2.0,6.0,74,0.00,,---,0.02,VWS V14.01,2013-07-29 17:30:00,
2013-07-29 13:33:00,65.2,56.3,30.08,SW,228,2.0,6.0,73,0.00,,---,0.02,VWS V14.01,2013-07-29 17:33:00,
2013-07-29 13:35:00,65.2,56.7,30.07,SW,215,5.0,6.0,74,0.00,,---,0.02,VWS V14.01,2013-07-29 17:35:00,
2013-07-29 13:38:00,65.5,57.0,30.07,WSW,253,1.0,5.0,74,0.00,,---,0.02,VWS V14.01,2013-07-29 17:38:00,
2013-07-29 13:40:00,65.7,57.2,30.08,NE,43,2.0,5.0,74,0.00,,---,0.02,VWS V14.01,2013-07-29 17:40:00,
2013-07-29 13:43:00,65.9,57.0,30.08,SE,141,1.0,5.0,73,0.00,,---,0.02,VWS V14.01,2013-07-29 17:43:00,
2013-07-29 13:45:00,66.5,58.0,30.08,SW,215,2.0,5.0,74,0.00,,---,0.02,VWS V14.01,2013-07-29 17:45:00,
2013-07-29 13:48:00,67.3,57.6,30.08,NW,317,1.0,3.0,71,0.00,,---,0.02,VWS V14.01,2013-07-29 17:48:00,
2013-07-29 13:50:00,67.3,57.2,30.08,SW,228,1.0,5.0,70,0.00,,---,0.02,VWS V14.01,2013-07-29 17:50:00,
2013-07-29 13:54:00,67.5,57.8,30.08,SW,219,3.0,3.0,71,0.00,,---,0.02,VWS V14.01,2013-07-29 17:54:00,
2013-07-29 13:55:00,67.7,58.0,30.07,NNW,334,2.0,3.0,71,0.00,,---,0.02,VWS V14.01,2013-07-29 17:55:00,
2013-07-29 13:59:00,68.1,57.6,30.08,SW,218,0.0,4.0,69,0.00,,---,0.02,VWS V14.01,2013-07-29 17:59:00,
2013-07-29 14:00:00,68.0,57.1,30.08,North,359,1.0,6.0,68,0.00,,---,0.02,VWS V14.01,2013-07-29 18:00:00,
2013-07-29 14:04:00,68.1,57.2,30.08,SW,232,2.0,6.0,68,0.00,,---,0.02,VWS V14.01,2013-07-29 18:04:00,
2013-07-29 14:05:00,67.9,56.1,30.08,SW,217,5.0,9.0,66,0.00,,---,0.02,VWS V14.01,2013-07-29 18:05:00,
2013-07-29 14:09:00,68.1,56.7,30.08,SSW,197,4.0,10.0,67,0.00,,---,0.02,VWS V14.01,2013-07-29 18:09:00,
2013-07-29 14:10:00,68.1,56.7,30.08,SW,218,1.0,10.0,67,0.00,,---,0.02,VWS V14.01,2013-07-29 18:10:00,
2013-07-29 14:14:00,68.2,56.8,30.08,SSW,211,1.0,6.0,67,0.00,,---,0.02,VWS V14.01,2013-07-29 18:14:00,
2013-07-29 14:15:00,68.3,56.5,30.07,West,277,1.0,6.0,66,0.00,,---,0.02,VWS V14.01,2013-07-29 18:15:00,
2013-07-29 14:19:00,68.2,57.2,30.08,West,270,6.0,6.0,68,0.00,,---,0.02,VWS V14.01,2013-07-29 18:19:00,
2013-07-29 14:20:00,68.3,56.5,30.08,NW,307,1.0,6.0,66,0.00,,---,0.02,VWS V14.01,2013-07-29 18:20:00,
2013-07-29 14:24:00,69.0,57.6,30.08,North,350,1.0,3.0,67,0.00,,---,0.02,VWS V14.01,2013-07-29 18:24:00,
2013-07-29 14:25:00,69.4,58.8,30.08,SW,219,7.0,7.0,69,0.00,,---,0.02,VWS V14.01,2013-07-29 18:25:00,
2013-07-29 14:29:00,69.0,58.0,30.08,SW,229,3.0,9.0,68,0.00,,---,0.02,VWS V14.01,2013-07-29 18:29:00,
2013-07-29 14:30:00,68.6,57.6,30.08,West,269,3.0,9.0,68,0.00,,---,0.02,VWS V14.01,2013-07-29 18:30:00,
2013-07-29 14:34:00,68.1,58.0,30.08,WSW,238,4.0,8.0,70,0.00,,---,0.02,VWS V14.01,2013-07-29 18:34:00,
2013-07-29 14:35:00,67.9,57.4,30.08,SW,219,5.0,8.0,69,0.00,,---,0.02,VWS V14.01,2013-07-29 18:35:00,
2013-07-29 14:39:00,67.9,57.8,30.08,SW,236,5.0,11.0,70,0.00,,---,0.02,VWS V14.01,2013-07-29 18:39:00,
2013-07-29 14:40:00,67.9,57.4,30.08,SSW,201,3.0,11.0,69,0.00,,---,0.02,VWS V14.01,2013-07-29 18:40:00,
2013-07-29 14:44:00,68.2,58.0,30.08,SW,228,0.0,6.0,70,0.00,,---,0.02,VWS V14.01,2013-07-29 18:44:00,
2013-07-29 14:45:00,68.4,57.8,30.08,South,180,5.0,6.0,69,0.00,,---,0.02,VWS V14.01,2013-07-29 18:45:00,
2013-07-29 14:49:00,68.3,57.3,30.08,WNW,302,1.0,5.0,68,0.00,,---,0.02,VWS V14.01,2013-07-29 18:49:00,
2013-07-29 14:50:00,68.2,57.2,30.08,NNE,26,4.0,5.0,68,0.00,,---,0.02,VWS V14.01,2013-07-29 18:50:00,
2013-07-29 14:54:00,68.3,58.9,30.08,South,170,3.0,5.0,72,0.00,,---,0.02,VWS V14.01,2013-07-29 18:54:00,
2013-07-29 14:55:00,68.3,58.9,30.08,SSW,206,3.0,5.0,72,0.00,,---,0.02,VWS V14.01,2013-07-29 18:55:00,
2013-07-29 14:59:00,68.9,58.3,30.08,SSE,166,1.0,8.0,69,0.00,,---,0.02,VWS V14.01,2013-07-29 18:59:00,
2013-07-29 15:00:00,68.9,58.3,30.08,South,191,0.0,8.0,69,0.00,,---,0.02,VWS V14.01,2013-07-29 19:00:00,
2013-07-29 15:05:00,69.2,57.0,30.08,SW,233,4.0,8.0,65,0.00,,---,0.02,VWS V14.01,2013-07-29 19:05:00,
2013-07-29 15:10:00,68.6,57.6,30.08,WSW,243,3.0,5.0,68,0.00,,---,0.02,VWS V14.01,2013-07-29 19:10:00,
2013-07-29 15:15:00,68.4,57.0,30.08,SW,228,5.0,5.0,67,0.00,,---,0.02,VWS V14.01,2013-07-29 19:15:00,
2013-07-29 15:20:00,67.7,56.4,30.08,SE,134,1.0,9.0,67,0.00,,---,0.02,VWS V14.01,2013-07-29 19:20:00,
2013-07-29 15:25:00,67.6,57.5,30.08,West,266,1.0,4.0,70,0.00,,---,0.02,VWS V14.01,2013-07-29 19:25:00,
2013-07-29 15:30:00,68.0,58.7,30.08,SW,226,5.0,5.0,72,0.00,,---,0.02,VWS V14.01,2013-07-29 19:30:00,
2013-07-29 15:35:00,68.3,57.3,30.08,SW,229,2.0,8.0,68,0.00,,---,0.02,VWS V14.01,2013-07-29 19:35:00,
2013-07-29 15:40:00,68.6,58.4,30.08,WNW,292,2.0,3.0,70,0.00,,---,0.02,VWS V14.01,2013-07-29 19:40:00,
2013-07-29 15:45:00,68.4,57.4,30.08,SSW,212,1.0,4.0,68,0.00,,---,0.02,VWS V14.01,2013-07-29 19:45:00,
2013-07-29 15:50:00,68.2,58.5,30.08,WSW,253,3.0,3.0,71,0.00,,---,0.02,VWS V14.01,2013-07-29 19:50:00,
2013-07-29 15:55:00,67.9,57.4,30.08,WSW,250,3.0,3.0,69,0.00,,---,0.02,VWS V14.01,2013-07-29 19:55:00,
2013-07-29 16:00:00,68.0,57.5,30.08,SSW,205,1.0,6.0,69,0.00,,---,0.02,VWS V14.01,2013-07-29 20:00:00,
2013-07-29 16:01:00,68.1,57.6,30.08,North,8,2.0,2.0,69,0.00,,---,0.02,VWS V14.01,2013-07-29 20:01:00,
2013-07-29 16:05:00,68.7,58.1,30.08,NNW,348,1.0,4.0,69,0.00,,---,0.02,VWS V14.01,2013-07-29 20:05:00,
2013-07-29 16:06:00,68.8,57.4,30.08,WSW,256,3.0,3.0,67,0.00,,---,0.02,VWS V14.01,2013-07-29 20:06:00,
2013-07-29 16:10:00,68.8,58.2,30.09,WNW,297,1.0,6.0,69,0.00,,---,0.02,VWS V14.01,2013-07-29 20:10:00,
2013-07-29 16:11:00,68.7,58.5,30.08,SW,236,3.0,5.0,70,0.00,,---,0.02,VWS V14.01,2013-07-29 20:11:00,
2013-07-29 16:15:00,68.6,59.2,30.08,West,277,0.0,7.0,72,0.00,,---,0.02,VWS V14.01,2013-07-29 20:15:00,
2013-07-29 16:17:00,68.8,59.0,30.08,SW,233,2.0,4.0,71,0.00,,---,0.02,VWS V14.01,2013-07-29 20:17:00,
2013-07-29 16:20:00,68.7,58.5,30.09,SSW,208,2.0,6.0,70,0.00,,---,0.02,VWS V14.01,2013-07-29 20:20:00,
2013-07-29 16:22:00,68.7,58.9,30.09,WSW,240,1.0,5.0,71,0.00,,---,0.02,VWS V14.01,2013-07-29 20:22:00,
2013-07-29 16:25:00,68.7,58.5,30.09,SW,217,2.0,5.0,70,0.00,,---,0.02,VWS V14.01,2013-07-29 20:25:00,
2013-07-29 16:27:00,68.8,59.0,30.09,WSW,250,5.0,5.0,71,0.00,,---,0.02,VWS V14.01,2013-07-29 20:27:00,
2013-07-29 16:30:00,68.6,58.4,30.09,NW,321,4.0,5.0,70,0.00,,---,0.02,VWS V14.01,2013-07-29 20:30:00,
2013-07-29 16:33:00,68.4,58.6,30.09,WSW,242,3.0,7.0,71,0.00,,---,0.02,VWS V14.01,2013-07-29 20:33:00,
2013-07-29 16:35:00,68.2,58.5,30.09,WSW,238,3.0,7.0,71,0.00,,---,0.02,VWS V14.01,2013-07-29 20:35:00,
2013-07-29 16:38:00,68.1,58.7,30.09,West,273,1.0,3.0,72,0.00,,---,0.02,VWS V14.01,2013-07-29 20:38:00,
2013-07-29 16:40:00,68.1,58.7,30.09,WSW,250,2.0,3.0,72,0.00,,---,0.02,VWS V14.01,2013-07-29 20:40:00,
2013-07-29 16:43:00,68.2,59.2,30.09,WSW,249,4.0,4.0,73,0.00,,---,0.02,VWS V14.01,2013-07-29 20:43:00,
2013-07-29 16:45:00,68.2,58.5,30.09,SSW,200,0.0,5.0,71,0.00,,---,0.02,VWS V14.01,2013-07-29 20:45:00,
2013-07-29 16:48:00,68.2,58.5,30.09,SW,228,1.0,5.0,71,0.00,,---,0.02,VWS V14.01,2013-07-29 20:48:00,
2013-07-29 16:50:00,68.2,58.8,30.09,WSW,238,3.0,5.0,72,0.00,,---,0.02,VWS V14.01,2013-07-29 20:50:00,
2013-07-29 16:53:00,68.2,58.8,30.09,SW,218,1.0,4.0,72,0.00,,---,0.02,VWS V14.01,2013-07-29 20:53:00,
2013-07-29 16:55:00,68.4,59.0,30.09,WNW,300,4.0,4.0,72,0.00,,---,0.02,VWS V14.01,2013-07-29 20:55:00,
2013-07-29 16:58:00,68.5,58.7,30.09,WSW,238,1.0,6.0,71,0.00,,---,0.02,VWS V14.01,2013-07-29 20:58:00,
2013-07-29 17:00:00,68.6,59.6,30.10,WSW,252,1.0,6.0,73,0.00,,---,0.02,VWS V14.01,2013-07-29 21:00:00,
2013-07-29 17:03:00,68.8,59.4,30.09,SW,228,2.0,5.0,72,0.00,,---,0.02,VWS V14.01,2013-07-29 21:03:00,
2013-07-29 17:05:00,68.7,58.9,30.09,WSW,240,4.0,5.0,71,0.00,,---,0.02,VWS V14.01,2013-07-29 21:05:00,
2013-07-29 17:08:00,68.5,58.3,30.09,SW,221,1.0,7.0,70,0.00,,---,0.02,VWS V14.01,2013-07-29 21:08:00,
2013-07-29 17:10:00,68.4,58.2,30.09,WSW,246,2.0,7.0,70,0.00,,---,0.02,VWS V14.01,2013-07-29 21:10:00,
2013-07-29 17:13:00,68.6,59.2,30.09,West,269,1.0,4.0,72,0.00,,---,0.02,VWS V14.01,2013-07-29 21:13:00,
2013-07-29 17:15:00,68.6,58.4,30.09,NE,41,1.0,7.0,70,0.00,,---,0.02,VWS V14.01,2013-07-29 21:15:00,
2013-07-29 17:18:00,68.9,58.7,30.09,SW,221,1.0,7.0,70,0.00,,---,0.02,VWS V14.01,2013-07-29 21:18:00,
2013-07-29 17:20:00,68.9,58.7,30.10,SW,219,7.0,10.0,70,0.00,,---,0.02,VWS V14.01,2013-07-29 21:20:00,
2013-07-29 17:23:00,68.7,58.5,30.09,WSW,238,3.0,7.0,70,0.00,,---,0.02,VWS V14.01,2013-07-29 21:23:00,
2013-07-29 17:25:00,68.7,58.5,30.09,SW,226,2.0,7.0,70,0.00,,---,0.02,VWS V14.01,2013-07-29 21:25:00,
2013-07-29 17:29:00,68.7,58.5,30.09,SSW,195,2.0,5.0,70,0.00,,---,0.02,VWS V14.01,2013-07-29 21:29:00,
2013-07-29 17:30:00,68.6,58.8,30.09,SW,219,2.0,5.0,71,0.00,,---,0.02,VWS V14.01,2013-07-29 21:30:00,
2013-07-29 17:34:00,68.4,57.8,30.10,SW,228,4.0,5.0,69,0.00,,---,0.02,VWS V14.01,2013-07-29 21:34:00,
2013-07-29 17:35:00,68.3,58.5,30.10,WSW,243,1.0,5.0,71,0.00,,---,0.02,VWS V14.01,2013-07-29 21:35:00,
2013-07-29 17:39:00,68.4,59.0,30.09,WNW,294,1.0,5.0,72,0.00,,,0.02,weatherlink.com 1.10,2013-07-29 21:39:00,
2013-07-29 17:40:00,68.5,58.7,30.09,WNW,302,0.0,4.0,71,0.00,,---,0.02,VWS V14.01,2013-07-29 21:40:00,
2013-07-29 17:44:00,68.4,58.6,30.10,SE,136,0.0,4.0,71,0.00,,---,0.02,VWS V14.01,2013-07-29 21:44:00,
2013-07-29 17:45:00,68.4,59.0,30.10,WNW,290,0.0,4.0,72,0.00,,---,0.02,VWS V14.01,2013-07-29 21:45:00,
2013-07-29 17:49:00,68.3,59.3,30.09,WSW,248,1.0,2.0,73,0.00,,---,0.02,VWS V14.01,2013-07-29 21:49:00,
2013-07-29 17:50:00,68.3,59.3,30.09,WSW,245,2.0,5.0,73,0.00,,---,0.02,VWS V14.01,2013-07-29 21:50:00,
2013-07-29 17:54:00,68.2,58.8,30.09,WSW,246,2.0,6.0,72,0.00,,---,0.02,VWS V14.01,2013-07-29 21:54:00,
2013-07-29 17:55:00,68.3,58.9,30.09,SSW,203,4.0,6.0,72,0.00,,---,0.02,VWS V14.01,2013-07-29 21:55:00,
2013-07-29 17:59:00,69.0,58.8,30.09,WSW,256,1.0,4.0,70,0.00,,---,0.02,VWS V14.01,2013-07-29 21:59:00,
2013-07-29 18:00:00,69.2,60.2,30.09,SSW,212,4.0,4.0,73,0.00,,---,0.02,VWS V14.01,2013-07-29 22:00:00,
2013-07-29 18:04:00,69.2,59.0,30.10,NW,315,1.0,6.0,70,0.00,,---,0.02,VWS V14.01,2013-07-29 22:04:00,
2013-07-29 18:05:00,69.2,59.0,30.10,West,267,1.0,6.0,70,0.00,,---,0.02,VWS V14.01,2013-07-29 22:05:00,
2013-07-29 18:09:00,69.6,59.4,30.10,WNW,302,1.0,3.0,70,0.00,,---,0.02,VWS V14.01,2013-07-29 22:09:00,
2013-07-29 18:10:00,69.7,59.5,30.10,West,278,1.0,3.0,70,0.00,,---,0.02,VWS V14.01,2013-07-29 22:10:00,
2013-07-29 18:14:00,70.2,60.0,30.10,SW,219,3.0,3.0,70,0.00,,---,0.02,VWS V14.01,2013-07-29 22:14:00,
2013-07-29 18:15:00,70.2,59.6,30.10,SW,214,3.0,3.0,69,0.00,,---,0.02,VWS V14.01,2013-07-29 22:15:00,
2013-07-29 18:19:00,70.1,59.1,30.10,NW,325,1.0,3.0,68,0.00,,---,0.02,VWS V14.01,2013-07-29 22:19:00,
2013-07-29 18:20:00,70.1,59.5,30.10,NW,305,2.0,3.0,69,0.00,,---,0.02,VWS V14.01,2013-07-29 22:20:00,
2013-07-29 18:24:00,69.7,59.1,30.10,North,352,1.0,5.0,69,0.00,,---,0.02,VWS V14.01,2013-07-29 22:24:00,
2013-07-29 18:25:00,69.6,59.0,30.10,NW,311,0.0,5.0,69,0.00,,---,0.02,VWS V14.01,2013-07-29 22:25:00,
2013-07-29 18:29:00,69.9,59.7,30.10,SW,219,2.0,3.0,70,0.00,,---,0.02,VWS V14.01,2013-07-29 22:29:00,
2013-07-29 18:30:00,69.9,60.1,30.10,SW,222,2.0,3.0,71,0.00,,---,0.02,VWS V14.01,2013-07-29 22:30:00,
2013-07-29 18:34:00,70.1,59.9,30.10,West,262,1.0,2.0,70,0.00,,---,0.02,VWS V14.01,2013-07-29 22:34:00,
2013-07-29 18:35:00,70.1,59.5,30.10,SW,226,1.0,2.0,69,0.00,,---,0.02,VWS V14.01,2013-07-29 22:35:00,
2013-07-29 18:40:00,69.4,58.8,30.10,ENE,60,0.0,5.0,69,0.00,,---,0.02,VWS V14.01,2013-07-29 22:40:00,
2013-07-29 18:45:00,69.3,59.5,30.10,SSE,155,1.0,5.0,71,0.00,,---,0.02,VWS V14.01,2013-07-29 22:45:00,
2013-07-29 18:50:00,69.7,59.1,30.10,WNW,301,1.0,4.0,69,0.00,,---,0.02,VWS V14.01,2013-07-29 22:50:00,
2013-07-29 18:55:00,69.7,59.1,30.10,West,267,1.0,6.0,69,0.00,,---,0.02,VWS V14.01,2013-07-29 22:55:00,
2013-07-29 19:00:00,70.0,59.0,30.10,WNW,284,2.0,3.0,68,0.00,,---,0.02,VWS V14.01,2013-07-29 23:00:00,
2013-07-29 19:05:00,70.2,59.6,30.10,SW,214,3.0,4.0,69,0.00,,---,0.02,VWS V14.01,2013-07-29 23:05:00,
2013-07-29 19:10:00,69.9,59.7,30.10,NW,319,2.0,5.0,70,0.00,,---,0.02,VWS V14.01,2013-07-29 23:10:00,
2013-07-29 19:15:00,69.4,59.2,30.11,NW,319,2.0,4.0,70,0.00,,---,0.02,VWS V14.01,2013-07-29 23:15:00,
2013-07-29 19:20:00,69.4,59.2,30.11,ENE,78,0.0,3.0,70,0.00,,---,0.02,VWS V14.01,2013-07-29 23:20:00,
2013-07-29 19:25:00,69.4,59.2,30.11,North,1,1.0,3.0,70,0.00,,---,0.02,VWS V14.01,2013-07-29 23:25:00,
2013-07-29 19:30:00,69.3,59.1,30.11,West,260,2.0,3.0,70,0.00,,---,0.02,VWS V14.01,2013-07-29 23:30:00,
2013-07-29 19:35:00,69.3,59.5,30.11,West,261,0.0,0.0,71,0.00,,---,0.02,VWS V14.01,2013-07-29 23:35:00,
2013-07-29 19:40:00,69.3,59.5,30.11,SSW,213,2.0,4.0,71,0.00,,---,0.02,VWS V14.01,2013-07-29 23:40:00,
2013-07-29 19:45:00,69.1,59.7,30.11,WSW,240,3.0,3.0,72,0.00,,---,0.02,VWS V14.01,2013-07-29 23:45:00,
2013-07-29 19:50:00,68.5,59.5,30.11,SW,236,0.0,0.0,73,0.00,,---,0.02,VWS V14.01,2013-07-29 23:50:00,
2013-07-29 19:55:00,67.9,59.3,30.11,NW,304,0.0,0.0,74,0.00,,---,0.02,VWS V14.01,2013-07-29 23:55:00,
2013-07-29 20:00:00,67.1,58.9,30.11,North,352,0.0,0.0,75,0.00,,---,0.02,VWS V14.01,2013-07-30 00:00:00,
2013-07-29 20:05:00,66.6,58.8,30.11,West,278,0.0,0.0,76,0.00,,---,0.02,VWS V14.01,2013-07-30 00:05:00,
2013-07-29 20:10:00,66.2,58.8,30.11,West,259,0.0,0.0,77,0.00,,---,0.02,VWS V14.01,2013-07-30 00:10:00,
2013-07-29 20:15:00,65.8,58.8,30.11,West,260,0.0,1.0,78,0.00,,---,0.02,VWS V14.01,2013-07-30 00:15:00,
2013-07-29 20:20:00,65.5,59.2,30.11,West,260,0.0,0.0,80,0.00,,---,0.02,VWS V14.01,2013-07-30 00:20:00,
2013-07-29 20:25:00,65.2,59.2,30.11,WSW,253,0.0,1.0,81,0.00,,---,0.02,VWS V14.01,2013-07-30 00:25:00,
2013-07-29 20:26:00,65.1,59.1,30.11,WSW,252,0.0,0.0,81,0.00,,---,0.02,VWS V14.01,2013-07-30 00:26:00,
2013-07-29 20:30:00,64.7,59.1,30.12,WSW,252,0.0,0.0,82,0.00,,---,0.02,VWS V14.01,2013-07-30 00:30:00,
2013-07-29 20:31:00,64.6,59.0,30.12,WSW,252,0.0,0.0,82,0.00,,---,0.02,VWS V14.01,2013-07-30 00:31:00,
2013-07-29 20:35:00,64.2,58.9,30.12,WSW,252,0.0,0.0,83,0.00,,---,0.02,VWS V14.01,2013-07-30 00:35:00,
2013-07-29 20:36:00,64.2,59.3,30.12,WSW,253,0.0,0.0,84,0.00,,---,0.02,VWS V14.01,2013-07-30 00:36:00,
2013-07-29 20:40:00,63.8,59.2,30.12,WSW,253,0.0,0.0,85,0.00,,---,0.02,VWS V14.01,2013-07-30 00:40:00,
2013-07-29 20:41:00,63.8,59.2,30.12,WSW,252,0.0,0.0,85,0.00,,---,0.02,VWS V14.01,2013-07-30 00:41:00,
2013-07-29 20:45:00,63.3,58.7,30.12,WSW,253,0.0,0.0,85,0.00,,---,0.02,VWS V14.01,2013-07-30 00:45:00,
2013-07-29 20:46:00,63.3,59.0,30.12,WSW,252,0.0,0.0,86,0.00,,---,0.02,VWS V14.01,2013-07-30 00:46:00,
2013-07-29 20:50:00,63.0,58.8,30.12,WSW,253,0.0,0.0,86,0.00,,---,0.02,VWS V14.01,2013-07-30 00:50:00,
2013-07-29 20:51:00,62.9,59.0,30.12,WSW,253,0.0,0.0,87,0.00,,---,0.02,VWS V14.01,2013-07-30 00:51:00,
2013-07-29 20:55:00,62.5,58.6,30.12,WSW,253,0.0,0.0,87,0.00,,---,0.02,VWS V14.01,2013-07-30 00:55:00,
2013-07-29 20:57:00,62.3,58.7,30.12,WSW,253,0.0,0.0,88,0.00,,---,0.02,VWS V14.01,2013-07-30 00:57:00,
2013-07-29 21:00:00,62.0,58.4,30.12,WSW,253,0.0,0.0,88,0.00,,---,0.02,VWS V14.01,2013-07-30 01:00:00,
2013-07-29 21:02:00,61.9,58.3,30.12,WSW,253,0.0,0.0,88,0.00,,---,0.02,VWS V14.01,2013-07-30 01:02:00,
2013-07-29 21:05:00,61.7,58.4,30.12,WSW,252,0.0,0.0,89,0.00,,---,0.02,VWS V14.01,2013-07-30 01:05:00,
2013-07-29 21:07:00,61.6,58.3,30.12,WSW,252,0.0,0.0,89,0.00,,---,0.02,VWS V14.01,2013-07-30 01:07:00,
2013-07-29 21:10:00,61.4,58.1,30.12,WSW,253,0.0,0.0,89,0.00,,---,0.02,VWS V14.01,2013-07-30 01:10:00,
2013-07-29 21:12:00,61.4,58.1,30.12,WSW,253,0.0,0.0,89,0.00,,---,0.02,VWS V14.01,2013-07-30 01:12:00,
2013-07-29 21:15:00,61.1,58.2,30.12,WSW,253,0.0,0.0,90,0.00,,---,0.02,VWS V14.01,2013-07-30 01:15:00,
2013-07-29 21:17:00,60.9,58.0,30.12,WSW,252,0.0,0.0,90,0.00,,---,0.02,VWS V14.01,2013-07-30 01:17:00,
2013-07-29 21:20:00,60.5,57.6,30.13,WSW,253,0.0,0.0,90,0.00,,---,0.02,VWS V14.01,2013-07-30 01:20:00,
2013-07-29 21:22:00,60.4,57.8,30.13,WSW,252,0.0,0.0,91,0.00,,---,0.02,VWS V14.01,2013-07-30 01:22:00,
2013-07-29 21:25:00,60.0,57.4,30.13,WSW,253,0.0,0.0,91,0.00,,---,0.02,VWS V14.01,2013-07-30 01:25:00,
2013-07-29 21:27:00,59.9,57.3,30.13,WSW,253,0.0,0.0,91,0.00,,---,0.02,VWS V14.01,2013-07-30 01:27:00,
2013-07-29 21:30:00,59.6,57.3,30.13,WSW,253,0.0,0.0,92,0.00,,---,0.02,VWS V14.01,2013-07-30 01:30:00,
2013-07-29 21:32:00,59.5,57.2,30.13,WSW,252,0.0,0.0,92,0.00,,---,0.02,VWS V14.01,2013-07-30 01:32:00,
2013-07-29 21:35:00,59.3,57.3,30.14,WSW,253,0.0,0.0,93,0.00,,---,0.02,VWS V14.01,2013-07-30 01:35:00,
2013-07-29 21:37:00,59.2,57.2,30.14,WSW,253,0.0,0.0,93,0.00,,---,0.02,VWS V14.01,2013-07-30 01:37:00,
2013-07-29 21:40:00,59.1,57.1,30.14,WSW,252,0.0,0.0,93,0.00,,---,0.02,VWS V14.01,2013-07-30 01:40:00,
2013-07-29 21:42:00,58.9,56.9,30.14,WSW,253,0.0,0.0,93,0.00,,---,0.02,VWS V14.01,2013-07-30 01:42:00,
2013-07-29 21:45:00,58.7,56.7,30.14,WSW,253,0.0,0.0,93,0.00,,---,0.02,VWS V14.01,2013-07-30 01:45:00,
2013-07-29 21:47:00,58.6,56.9,30.14,WSW,253,0.0,0.0,94,0.00,,---,0.02,VWS V14.01,2013-07-30 01:47:00,
2013-07-29 21:50:00,58.6,56.9,30.14,WSW,253,0.0,0.0,94,0.00,,---,0.02,VWS V14.01,2013-07-30 01:50:00,
2013-07-29 21:52:00,58.5,56.8,30.15,WSW,253,0.0,0.0,94,0.00,,---,0.02,VWS V14.01,2013-07-30 01:52:00,
2013-07-29 21:55:00,58.4,56.7,30.15,WSW,253,0.0,0.0,94,0.00,,---,0.02,VWS V14.01,2013-07-30 01:55:00,
2013-07-29 21:57:00,58.3,56.6,30.14,WSW,253,0.0,0.0,94,0.00,,---,0.02,VWS V14.01,2013-07-30 01:57:00,
2013-07-29 22:00:00,58.3,56.9,30.15,WSW,253,0.0,0.0,95,0.00,,---,0.02,VWS V14.01,2013-07-30 02:00:00,
2013-07-29 22:02:00,58.3,56.9,30.15,WSW,253,0.0,0.0,95,0.00,,---,0.02,VWS V14.01,2013-07-30 02:02:00,
2013-07-29 22:05:00,58.3,56.9,30.15,WSW,253,0.0,0.0,95,0.00,,---,0.02,VWS V14.01,2013-07-30 02:05:00,
2013-07-29 22:08:00,58.2,56.5,30.15,WSW,252,0.0,0.0,94,0.00,,---,0.02,VWS V14.01,2013-07-30 02:08:00,
2013-07-29 22:10:00,58.1,56.4,30.15,WSW,253,0.0,0.0,94,0.00,,---,0.02,VWS V14.01,2013-07-30 02:10:00,
2013-07-29 22:13:00,58.1,56.7,30.15,WSW,253,0.0,0.0,95,0.00,,---,0.02,VWS V14.01,2013-07-30 02:13:00,
2013-07-29 22:15:00,58.0,56.6,30.15,WSW,253,0.0,0.0,95,0.00,,---,0.02,VWS V14.01,2013-07-30 02:15:00,
2013-07-29 22:18:00,58.0,56.6,30.15,WSW,253,0.0,0.0,95,0.00,,---,0.02,VWS V14.01,2013-07-30 02:18:00,
2013-07-29 22:20:00,57.8,56.1,30.15,WSW,253,0.0,0.0,94,0.00,,---,0.02,VWS V14.01,2013-07-30 02:20:00,
2013-07-29 22:23:00,57.6,55.9,30.15,WSW,253,0.0,0.0,94,0.00,,---,0.02,VWS V14.01,2013-07-30 02:23:00,
2013-07-29 22:25:00,57.4,56.0,30.15,WSW,252,0.0,0.0,95,0.00,,---,0.02,VWS V14.01,2013-07-30 02:25:00,
2013-07-29 22:28:00,57.3,55.9,30.15,WSW,253,0.0,0.0,95,0.00,,---,0.02,VWS V14.01,2013-07-30 02:28:00,
2013-07-29 22:30:00,57.2,55.8,30.15,WSW,253,0.0,0.0,95,0.00,,---,0.02,VWS V14.01,2013-07-30 02:30:00,
2013-07-29 22:33:00,57.1,55.7,30.15,WSW,253,0.0,0.0,95,0.00,,---,0.02,VWS V14.01,2013-07-30 02:33:00,
2013-07-29 22:35:00,57.1,55.7,30.15,WSW,252,0.0,0.0,95,0.00,,---,0.02,VWS V14.01,2013-07-30 02:35:00,
2013-07-29 22:38:00,57.0,55.6,30.15,WSW,253,0.0,0.0,95,0.00,,---,0.02,VWS V14.01,2013-07-30 02:38:00,
2013-07-29 22:40:00,56.9,55.5,30.15,WSW,252,0.0,0.0,95,0.00,,---,0.02,VWS V14.01,2013-07-30 02:40:00,
2013-07-29 22:43:00,56.7,55.3,30.15,WSW,253,0.0,0.0,95,0.00,,---,0.02,VWS V14.01,2013-07-30 02:43:00,
2013-07-29 22:45:00,56.6,55.2,30.15,WSW,253,0.0,0.0,95,0.00,,---,0.02,VWS V14.01,2013-07-30 02:45:00,
2013-07-29 22:48:00,56.5,55.4,30.15,WSW,253,0.0,0.0,96,0.00,,---,0.02,VWS V14.01,2013-07-30 02:48:00,
2013-07-29 22:50:00,56.4,55.3,30.15,WSW,253,0.0,0.0,96,0.00,,---,0.02,VWS V14.01,2013-07-30 02:50:00,
2013-07-29 22:53:00,56.2,54.8,30.15,WSW,253,0.0,0.0,95,0.00,,---,0.02,VWS V14.01,2013-07-30 02:53:00,
2013-07-29 22:55:00,56.1,54.7,30.15,WSW,253,0.0,0.0,95,0.00,,---,0.02,VWS V14.01,2013-07-30 02:55:00,
2013-07-29 22:58:00,55.9,54.8,30.15,WSW,252,0.0,0.0,96,0.00,,---,0.02,VWS V14.01,2013-07-30 02:58:00,
2013-07-29 23:00:00,55.9,54.8,30.15,WSW,252,0.0,0.0,96,0.00,,---,0.02,VWS V14.01,2013-07-30 03:00:00,
2013-07-29 23:03:00,55.8,54.7,30.15,WSW,253,0.0,0.0,96,0.00,,---,0.02,VWS V14.01,2013-07-30 03:03:00,
2013-07-29 23:05:00,55.8,54.7,30.15,WSW,253,0.0,0.0,96,0.00,,---,0.02,VWS V14.01,2013-07-30 03:05:00,
2013-07-29 23:08:00,55.8,54.7,30.15,WSW,252,0.0,0.0,96,0.00,,---,0.02,VWS V14.01,2013-07-30 03:08:00,
2013-07-29 23:10:00,55.7,54.6,30.15,WSW,253,0.0,0.0,96,0.00,,---,0.02,VWS V14.01,2013-07-30 03:10:00,
2013-07-29 23:13:00,55.5,54.4,30.16,WSW,253,0.0,0.0,96,0.00,,---,0.02,VWS V14.01,2013-07-30 03:13:00,
2013-07-29 23:15:00,55.4,54.3,30.16,WSW,253,0.0,0.0,96,0.00,,---,0.02,VWS V14.01,2013-07-30 03:15:00,
2013-07-29 23:18:00,55.2,54.1,30.15,WSW,253,0.0,0.0,96,0.00,,---,0.02,VWS V14.01,2013-07-30 03:18:00,
2013-07-29 23:20:00,55.0,53.9,30.15,WSW,252,0.0,0.0,96,0.00,,---,0.02,VWS V14.01,2013-07-30 03:20:00,
2013-07-29 23:23:00,54.9,53.8,30.15,WSW,253,0.0,0.0,96,0.00,,---,0.02,VWS V14.01,2013-07-30 03:23:00,
2013-07-29 23:25:00,54.8,53.7,30.16,WSW,252,0.0,0.0,96,0.00,,---,0.02,VWS V14.01,2013-07-30 03:25:00,
2013-07-29 23:28:00,54.7,53.6,30.16,WSW,253,0.0,0.0,96,0.00,,---,0.02,VWS V14.01,2013-07-30 03:28:00,
2013-07-29 23:30:00,54.6,53.5,30.16,WSW,252,0.0,0.0,96,0.00,,---,0.02,VWS V14.01,2013-07-30 03:30:00,
2013-07-29 23:33:00,54.6,53.8,30.16,WSW,253,0.0,0.0,97,0.00,,---,0.02,VWS V14.01,2013-07-30 03:33:00,
2013-07-29 23:35:00,54.6,53.8,30.15,WSW,253,0.0,0.0,97,0.00,,---,0.02,VWS V14.01,2013-07-30 03:35:00,
2013-07-29 23:39:00,54.5,53.7,30.16,WSW,252,0.0,0.0,97,0.00,,---,0.02,VWS V14.01,2013-07-30 03:39:00,
2013-07-29 23:40:00,54.4,53.6,30.16,WSW,253,0.0,0.0,97,0.00,,---,0.02,VWS V14.01,2013-07-30 03:40:00,
2013-07-29 23:44:00,54.3,53.5,30.16,WSW,253,0.0,0.0,97,0.00,,---,0.02,VWS V14.01,2013-07-30 03:44:00,
2013-07-29 23:45:00,54.2,53.1,30.16,WSW,253,0.0,0.0,96,0.00,,---,0.02,VWS V14.01,2013-07-30 03:45:00,
2013-07-29 23:49:00,53.9,52.8,30.16,WSW,253,0.0,0.0,96,0.00,,---,0.02,VWS V14.01,2013-07-30 03:49:00,
2013-07-29 23:50:00,53.9,52.8,30.16,WSW,253,0.0,0.0,96,0.00,,---,0.02,VWS V14.01,2013-07-30 03:50:00,
2013-07-29 23:54:00,53.7,52.9,30.16,WSW,253,0.0,0.0,97,0.00,,---,0.02,VWS V14.01,2013-07-30 03:54:00,
2013-07-29 23:55:00,53.7,52.9,30.16,WSW,253,0.0,0.0,97,0.00,,---,0.02,VWS V14.01,2013-07-30 03:55:00,
2013-07-29 23:59:00,53.9,53.1,30.16,WSW,253,0.0,0.0,97,0.00,,---,0.02,VWS V14.01,2013-07-30 03:59:00,